[[{"header":{"parameterUnit":"m.s-1","parameterCategory":1,"la1":30.2991,"la2":30.254,"lo1":-89.0895,"lo2":-89.0444,"dy":0.0017,"dx":0.0017,"nx":28,"ny":28,"refTime":"2024-03-20T09:00:00:Z","depth":0,"parameterNumber":2,"parameterNumberName":"U-component_of_WINDS"},"data":[0,0,0,0,0,0,0,0,0,0,0,0,0,0,0,0,0,0,0,0,0,0,0,0,0,0,0,0,0,0,0,0,0,0,0,0,0,0,0,0,0,0,0,0,0,0,0,0,0,0,0,0,0,0,0,0,0,0,-5.3239,-5.3238,0,-5.3172,-5.3171,-5.317,-5.3014,-5.3011,-5.3008,-5.3005,-5.2939,-5.294,-5.2941,0,0,0,0,0,0,0,0,0,0,0,0,0,-5.3235,-5.3236,-5.3239,-5.3238,-5.3237,-5.3172,-5.3171,-5.317,-5.3015,-5.3011,-5.3007,-5.3003,-5.2938,-5.294,-5.2941,0,0,0,0,0,0,0,0,0,0,0,0,0,-5.3209,-5.3236,-5.3239,-5.3152,-5.3143,-5.3172,-5.3171,-5.317,-5.3016,-5.3011,-5.3006,-5.3002,-5.2938,-5.294,-5.2941,-5.305,0,0,-5.2947,-5.2948,0,0,0,0,0,0,0,0,-5.3211,-5.3209,-5.3165,-5.3158,-5.3148,-5.3096,-5.3145,-5.313,-5.3017,-5.3064,-5.3005,-5.2999,-5.2995,-5.2992,-5.299,-5.3047,-5.3044,-5.2947,-5.2949,-5.2949,-5.295,0,0,0,0,0,0,0,-5.3213,-5.3212,-5.3212,-5.3165,-5.3155,-5.3117,-5.3108,-5.3141,-5.3058,-5.306,-5.3048,-5.3042,-5.299,-5.2989,-5.2988,-5.3043,-5.2947,-5.2949,-5.295,-5.2951,-5.3183,-5.3188,0,0,0,0,0,0,-5.3227,-5.3214,-5.3214,-5.321,-5.3168,-5.3121,-5.3111,-5.3118,-5.3057,-5.3043,-5.3047,-5.3035,-5.2988,-5.2986,-5.2985,-5.3105,-5.2949,-5.2951,-5.2952,-5.3178,-5.3184,-5.3189,0,0,0,0,0,0,-5.3227,-5.3228,-5.3217,-5.3209,-5.3205,-5.3126,-5.3135,-5.3119,-5.3118,-5.3047,-5.3032,-5.3061,-5.2984,-5.2982,-5.3034,-5.31,-5.2952,-5.2954,-5.3172,-5.318,-5.3187,-5.3348,0,0,0,0,0,0,-5.3228,-5.3229,-5.3269,-5.3211,-5.3206,-5.3268,-5.314,-5.3121,-5.3121,-5.3106,-5.3056,-5.3043,-5.298,-5.3032,-5.3036,-5.31,-5.2955,-5.3165,-5.3175,-5.3184,-5.3337,-5.336,-5.3381,0,0,0,0,0,-5.3228,-5.3319,-5.3272,-5.3273,-5.3254,-5.3272,-5.3269,-5.3193,-5.3127,-5.3167,-5.3121,-5.3045,-5.3094,-5.3039,-5.3042,-5.3108,-5.3161,-5.3172,-5.3183,-5.3327,-5.3356,-5.338,0,0,0,0,0,0,-5.3388,-5.3309,-5.3257,-5.3331,-5.3309,-5.3245,-5.3293,-5.3227,-5.3224,-5.321,-5.3117,-5.3107,-5.3172,-5.3145,-5.3086,-5.3208,-5.3115,-5.3127,-5.3223,-5.325,-5.3271,-5.3275,-5.2957,0,0,0,0,0,-5.3432,-5.3452,-5.3383,-5.3455,-5.3447,-5.3372,-5.3377,-5.3321,-5.3295,-5.3285,-5.3243,-5.3221,-5.3231,-5.3239,-5.3245,-5.3333,-5.3319,-5.338,-5.3402,-5.3421,-5.3432,-5.3474,-5.35,-5.3226,-5.3226,-5.3226,0,0,-5.3523,-5.3482,-5.3501,-5.3486,-5.3462,-5.3485,-5.3365,-5.3396,-5.3411,-5.329,-5.3335,-5.3304,-5.3274,-5.3344,-5.3373,-5.3324,-5.3504,-5.3435,-5.3451,-5.3451,-5.3488,-5.3514,-5.3537,-5.3234,-5.3233,-5.3232,0,0,-5.3699,-5.3672,-5.3727,-5.3706,-5.3671,-5.3621,-5.3635,-5.3581,-5.3555,-5.3599,-5.3507,-5.3526,-5.3546,-5.3526,-5.352,-5.3689,-5.3618,-5.3694,-5.3808,-5.3851,-5.3872,-5.3891,-5.3948,-5.3971,-5.3706,-5.3706,-5.3707,0,-5.3816,-5.3846,-5.3765,-5.3799,-5.3795,-5.3685,-5.3741,-5.3724,-5.3694,-5.3694,-5.364,-5.366,-5.3633,-5.3695,-5.3737,-5.3736,-5.3747,-5.3698,-5.3876,-5.3894,-5.391,-5.3964,-5.3986,-5.3715,-5.3714,-5.3713,-5.3713,0,-5.3991,-5.4014,-5.4063,-5.4034,-5.4036,-5.4082,-5.4007,-5.4019,-5.3963,-5.3919,-5.3964,-5.3927,-5.3922,-5.3933,-5.388,-5.3989,-5.3959,-5.3892,-5.3795,-5.3946,-5.3995,-5.4015,-5.3729,-5.3725,-5.3723,-5.372,0,0,-5.4264,-5.4189,-5.4209,-5.4193,-5.4147,-5.4163,-5.4204,-5.4198,-5.4209,-5.4192,-5.4223,-5.4242,-5.4179,-5.4171,-5.4115,-5.4153,-5.4286,-5.408,-5.4078,-5.4117,-5.44,-5.4449,-5.4474,-5.424,-5.4244,-5.4247,-5.4402,0,-5.4427,-5.449,-5.4418,-5.4497,-5.4515,-5.4412,-5.4447,-5.4423,-5.4383,-5.4394,-5.435,-5.4363,-5.4281,-5.4275,-5.4308,-5.4263,-5.4341,-5.4251,-5.4266,-5.4268,-5.4274,-5.45,-5.4552,-5.47,-5.4421,-5.4424,-5.4426,0,-5.4625,-5.4616,-5.4696,-5.4643,-5.4648,-5.4681,-5.4668,-5.4681,-5.4651,-5.4619,-5.4611,-5.4543,-5.4578,-5.4487,-5.4534,-5.4475,-5.4477,-5.4456,-5.446,-5.4456,-5.4354,-5.45,-5.4746,-5.4768,-5.4456,-5.4454,-5.4452,0,-5.4813,-5.4821,-5.4869,-5.486,-5.48,-5.4825,-5.4802,-5.4767,-5.4768,-5.4758,-5.4756,-5.4752,-5.4749,-5.4747,-5.4679,-5.4619,-5.4734,-5.4637,-5.4707,-5.4709,-5.4734,-5.4733,-5.4981,-5.4741,-5.4741,-5.474,-5.474,0,-5.5,-5.5053,-5.4952,-5.4982,-5.5037,-5.4954,-5.5012,-5.4978,-5.4948,-5.4969,-5.4881,-5.4902,-5.4813,-5.4825,-5.4773,-5.4818,-5.4819,-5.4793,-5.4778,-5.4799,-5.4802,-5.4797,-5.4784,-5.4746,-5.4745,-5.4744,-5.4743,0,-5.5218,-5.5153,-5.5198,-5.5138,-5.5124,-5.5168,-5.5116,-5.514,-5.5095,-5.5123,-5.5125,-5.5053,-5.5063,-5.4996,-5.4994,-5.4958,-5.5028,-5.4997,-5.5038,-5.5027,-5.51,-5.5093,-5.5352,-5.538,-5.5125,-5.5128,-5.513,0,-5.5341,-5.5378,-5.5322,-5.5329,-5.5309,-5.5323,-5.5322,-5.5242,-5.5246,-5.5214,-5.5243,-5.5245,-5.5242,-5.5262,-5.521,-5.5208,-5.5174,-5.5265,-5.5173,-5.5193,-5.5172,-5.517,-5.5172,-5.5284,-5.5287,-5.5289,-5.5291,0,-5.5565,-5.553,-5.5532,-5.5524,-5.5525,-5.5515,-5.5498,-5.551,-5.5423,-5.5431,-5.5439,-5.5437,-5.5434,-5.5437,-5.5424,-5.5399,-5.5331,-5.5321,-5.5337,-5.5357,-5.5378,-5.5365,-5.5087,-5.5315,-5.5313,-5.5311,-5.531,-5.5309,-5.5736,-5.5764,-5.5728,-5.5733,-5.5712,-5.5699,-5.5718,-5.5675,-5.568,-5.567,-5.5623,-5.564,-5.5608,-5.5583,-5.5566,-5.5577,-5.5533,-5.5557,-5.5562,-5.5568,-5.558,-5.5379,-5.5575,-5.5574,-5.5573,-5.5573,-5.5572,0,-5.5953,-5.5925,-5.593,-5.5909,-5.5914,-5.5849,-5.5827,-5.5835,-5.585,-5.5826,-5.5824,-5.5833,-5.5835,-5.5784,-5.5779,-5.5798,-5.5767,-5.58,-5.5796,-5.5791,-5.5621,-5.5607,-5.5825,-5.5825,-5.5825,-5.5825,-5.5825,-5.5825,-5.6066,-5.6109,-5.6071,-5.6102,-5.6073,-5.6087,-5.608,-5.6067,-5.6047,-5.606,-5.6061,-5.6028,-5.5992,-5.5984,-5.5983,-5.5968,-5.5969,-5.6012,-5.5987,-5.5828,-5.5803,-5.578,-5.5766,-5.6014,-5.6014,-5.6155,-5.6156,-5.6157]},{"header":{"parameterUnit":"m.s-1","parameterCategory":1,"la1":30.2991,"la2":30.254,"lo1":-89.0895,"lo2":-89.0444,"dy":0.0017,"dx":0.0017,"nx":28,"ny":28,"refTime":"2024-03-20T09:00:00:Z","depth":0,"parameterNumber":3,"parameterNumberName":"V-component_of_WINDS"},"data":[0,0,0,0,0,0,0,0,0,0,0,0,0,0,0,0,0,0,0,0,0,0,0,0,0,0,0,0,0,0,0,0,0,0,0,0,0,0,0,0,0,0,0,0,0,0,0,0,0,0,0,0,0,0,0,0,0,0,3.3992,3.3994,0,3.4168,3.417,3.4171,3.4272,3.4272,3.4272,3.4273,3.4445,3.4449,3.4453,0,0,0,0,0,0,0,0,0,0,0,0,0,3.3734,3.3738,3.3992,3.3994,3.3997,3.4167,3.417,3.4172,3.4272,3.4272,3.4273,3.4273,3.4444,3.4449,3.4454,0,0,0,0,0,0,0,0,0,0,0,0,0,3.3871,3.374,3.3992,3.4067,3.4076,3.4167,3.417,3.4173,3.4272,3.4272,3.4273,3.4273,3.4442,3.4448,3.4455,3.4482,0,0,3.4474,3.4477,0,0,0,0,0,0,0,0,3.3863,3.388,3.4054,3.4062,3.4072,3.4199,3.4142,3.4276,3.4271,3.4197,3.4273,3.4273,3.4362,3.4375,3.4407,3.449,3.4498,3.4475,3.4478,3.4481,3.4483,0,0,0,0,0,0,0,3.3854,3.3873,3.4061,3.4056,3.4067,3.4089,3.4109,3.4168,3.4274,3.4203,3.4211,3.4231,3.4367,3.44,3.4411,3.45,3.4474,3.448,3.4484,3.4486,3.4611,3.4611,0,0,0,0,0,0,3.3833,3.3865,3.4056,3.4067,3.3967,3.4093,3.4116,3.4157,3.4274,3.4292,3.423,3.4235,3.4389,3.4404,3.4418,3.4456,3.4481,3.4487,3.4491,3.4612,3.4611,3.4611,0,0,0,0,0,0,3.3827,3.3849,3.4049,3.3968,3.3995,3.4097,3.4143,3.416,3.4194,3.4294,3.4313,3.4245,3.439,3.4409,3.4465,3.4464,3.449,3.4496,3.4612,3.4612,3.4611,3.4534,0,0,0,0,0,0,3.382,3.3847,3.3861,3.3968,3.3999,3.4096,3.4143,3.4163,3.4205,3.4213,3.4313,3.433,3.4392,3.4455,3.4471,3.4473,3.4501,3.4613,3.4612,3.4611,3.4537,3.453,3.4525,0,0,0,0,0,3.381,3.3832,3.3861,3.3884,3.4019,3.4096,3.4113,3.4187,3.4205,3.4218,3.4282,3.4327,3.4461,3.446,3.4479,3.4482,3.4614,3.4612,3.4611,3.454,3.4532,3.4525,0,0,0,0,0,0,3.3721,3.3847,3.3881,3.3939,3.4006,3.4113,3.4132,3.4176,3.4238,3.4243,3.4328,3.4349,3.4397,3.4445,3.4442,3.4513,3.4542,3.4544,3.4481,3.4474,3.4468,3.4455,3.4506,0,0,0,0,0,3.3708,3.3762,3.3869,3.3908,3.3941,3.403,3.4066,3.4116,3.4188,3.4217,3.4285,3.4351,3.4408,3.4443,3.4501,3.4544,3.4565,3.4555,3.4549,3.4543,3.4545,3.4567,3.4563,3.4607,3.4607,3.4607,0,0,3.3682,3.3757,3.3786,3.3892,3.3951,3.4001,3.4053,3.4106,3.4144,3.4224,3.4282,3.4333,3.4412,3.4461,3.4486,3.4503,3.4537,3.4542,3.4537,3.4542,3.4566,3.4562,3.4558,3.4606,3.4607,3.4607,0,0,3.366,3.3724,3.3763,3.382,3.3907,3.3966,3.3974,3.4074,3.4112,3.4171,3.4232,3.4276,3.4373,3.4426,3.4465,3.4458,3.4501,3.4474,3.4443,3.4465,3.4461,3.4458,3.4454,3.4452,3.4475,3.4475,3.4475,0,3.3616,3.3699,3.3777,3.3826,3.3869,3.3945,3.3983,3.4033,3.4133,3.416,3.4177,3.4298,3.4357,3.4418,3.4416,3.4446,3.4456,3.4464,3.4456,3.4454,3.4452,3.4449,3.4447,3.4471,3.4472,3.4472,3.4472,0,3.3639,3.3694,3.3715,3.3811,3.3857,3.3899,3.3981,3.4017,3.4061,3.4116,3.4173,3.4246,3.4318,3.4336,3.438,3.4402,3.4409,3.444,3.447,3.4443,3.4441,3.4441,3.4466,3.4467,3.4468,3.4469,0,0,3.357,3.3706,3.3712,3.3756,3.3855,3.3898,3.3942,3.4015,3.4042,3.4107,3.4145,3.4223,3.4251,3.4295,3.4345,3.4364,3.4351,3.4392,3.4395,3.4381,3.4376,3.4352,3.435,3.4379,3.4379,3.4379,3.4369,0,3.3562,3.3648,3.3718,3.3776,3.3826,3.3896,3.3934,3.3997,3.4049,3.4096,3.4152,3.4206,3.424,3.4267,3.4288,3.4348,3.4351,3.4349,3.4412,3.4413,3.439,3.4349,3.4325,3.4312,3.4369,3.4369,3.4369,0,3.3566,3.3629,3.3693,3.3784,3.3808,3.3841,3.3911,3.3957,3.4027,3.4063,3.4111,3.4162,3.4208,3.4232,3.4295,3.4292,3.4321,3.4353,3.4355,3.4364,3.439,3.4356,3.431,3.4308,3.4369,3.4369,3.4369,0,3.3507,3.3608,3.3659,3.3693,3.3802,3.3823,3.3868,3.394,3.3977,3.4037,3.4062,3.4125,3.416,3.4206,3.4271,3.4284,3.4326,3.4356,3.4354,3.4353,3.4361,3.436,3.4318,3.438,3.438,3.438,3.438,0,3.3491,3.3527,3.3633,3.3665,3.3705,3.3782,3.3819,3.387,3.3932,3.3972,3.4035,3.407,3.4155,3.4199,3.425,3.4292,3.4307,3.4335,3.4349,3.433,3.4326,3.435,3.4353,3.4379,3.4379,3.4379,3.438,0,3.3434,3.3507,3.3566,3.3663,3.3687,3.3713,3.3794,3.3825,3.3878,3.3927,3.3943,3.4026,3.4081,3.4151,3.4227,3.4261,3.4297,3.4318,3.4274,3.4282,3.4275,3.4275,3.4248,3.4248,3.4309,3.4308,3.4308,0,3.342,3.3449,3.3548,3.358,3.3623,3.3674,3.3712,3.3787,3.3824,3.3905,3.3925,3.3984,3.4037,3.412,3.4186,3.4243,3.4265,3.4252,3.4274,3.4254,3.4264,3.4261,3.4263,3.4246,3.4245,3.4244,3.4244,0,3.3386,3.3419,3.3474,3.3539,3.3584,3.3639,3.3696,3.3718,3.3804,3.3841,3.3899,3.3939,3.4016,3.4073,3.4139,3.4183,3.4226,3.4236,3.4238,3.422,3.4192,3.4206,3.4258,3.4236,3.4237,3.4238,3.4238,3.4238,3.3349,3.3377,3.345,3.3507,3.3558,3.3609,3.3642,3.3699,3.3749,3.382,3.3859,3.3914,3.398,3.4073,3.4114,3.4156,3.4173,3.4177,3.4178,3.4177,3.4171,3.4185,3.4168,3.4169,3.4169,3.4169,3.4169,0,3.3317,3.3367,3.3419,3.3497,3.3541,3.3579,3.3643,3.3676,3.3725,3.3783,3.3833,3.3896,3.3951,3.402,3.4078,3.4098,3.4119,3.4111,3.411,3.4119,3.4153,3.4145,3.4093,3.4093,3.4093,3.4093,3.4093,3.4093,3.3306,3.3355,3.3396,3.3468,3.3517,3.3573,3.3606,3.3652,3.3699,3.3768,3.3814,3.3859,3.392,3.3983,3.4033,3.4052,3.407,3.4055,3.4079,3.411,3.4117,3.4123,3.4116,3.4059,3.4059,3.4042,3.4042,3.4041]}]]